TimeEDT,TemperatureF,Dew PointF,Humidity,Sea Level PressureIn,VisibilityMPH,Wind Direction,Wind SpeedMPH,Gust SpeedMPH,PrecipitationIn,Events,Conditions,WindDirDegrees,DateUTC
12:15 AM,57.2,50.0,77,30.12,5.0,Calm,Calm,-,N/A,,Clear,0,2013-07-02 04:15:00
12:35 AM,59.0,48.2,67,30.12,5.0,Calm,Calm,-,N/A,,Clear,0,2013-07-02 04:35:00
12:55 AM,57.2,48.2,72,30.13,5.0,Calm,Calm,-,N/A,,Clear,0,2013-07-02 04:55:00
1:15 AM,57.2,50.0,77,30.13,5.0,WNW,4.6,-,N/A,,Clear,300,2013-07-02 05:15:00
1:35 AM,59.0,48.2,67,30.14,5.0,NNW,4.6,-,N/A,,Clear,340,2013-07-02 05:35:00
1:55 AM,57.2,46.4,67,30.14,5.0,North,5.8,-,N/A,,Clear,360,2013-07-02 05:55:00
2:15 AM,57.2,48.2,72,30.13,5.0,Calm,Calm,-,N/A,,Clear,0,2013-07-02 06:15:00
2:35 AM,57.2,46.4,67,30.13,5.0,Calm,Calm,-,N/A,,Clear,0,2013-07-02 06:35:00
2:55 AM,57.2,46.4,67,30.13,5.0,Calm,Calm,-,N/A,,Scattered Clouds,0,2013-07-02 06:55:00
3:15 AM,57.2,46.4,67,30.14,6.0,North,5.8,-,N/A,,Mostly Cloudy,10,2013-07-02 07:15:00
3:35 AM,57.2,44.6,63,30.13,6.0,East,4.6,-,N/A,,Mostly Cloudy,80,2013-07-02 07:35:00
3:55 AM,57.2,46.4,67,30.14,7.0,NNE,6.9,-,N/A,,Scattered Clouds,20,2013-07-02 07:55:00
4:15 AM,57.2,46.4,67,30.16,7.0,Calm,Calm,-,N/A,,Clear,0,2013-07-02 08:15:00
4:35 AM,55.4,48.2,77,30.17,7.0,South,4.6,-,N/A,,Clear,190,2013-07-02 08:35:00
4:55 AM,55.4,46.4,72,30.17,5.0,North,3.5,-,N/A,,Clear,360,2013-07-02 08:55:00
5:15 AM,55.4,46.4,72,30.17,5.0,North,5.8,-,N/A,,Mostly Cloudy,360,2013-07-02 09:15:00
5:35 AM,55.4,46.4,72,30.18,6.0,Calm,Calm,-,N/A,,Mostly Cloudy,0,2013-07-02 09:35:00
5:55 AM,55.4,46.4,72,30.18,7.0,Calm,Calm,-,N/A,,Partly Cloudy,0,2013-07-02 09:55:00
6:15 AM,55.4,46.4,72,30.18,7.0,ENE,3.5,-,N/A,,Partly Cloudy,60,2013-07-02 10:15:00
6:35 AM,55.4,46.4,72,30.18,5.0,Calm,Calm,-,N/A,,Mostly Cloudy,0,2013-07-02 10:35:00
6:55 AM,55.4,48.2,77,30.20,7.0,North,4.6,-,N/A,,Mostly Cloudy,360,2013-07-02 10:55:00
7:15 AM,55.4,46.4,72,30.20,7.0,NNE,3.5,-,N/A,,Scattered Clouds,20,2013-07-02 11:15:00
7:35 AM,57.2,48.2,72,30.22,8.0,Calm,Calm,-,N/A,,Scattered Clouds,0,2013-07-02 11:35:00
7:55 AM,55.4,46.4,72,30.22,7.0,Calm,Calm,-,N/A,,Scattered Clouds,0,2013-07-02 11:55:00
8:15 AM,55.4,48.2,77,30.22,7.0,Calm,Calm,-,N/A,,Mostly Cloudy,0,2013-07-02 12:15:00
8:35 AM,55.4,48.2,77,30.22,8.0,North,4.6,-,0.01,,Mostly Cloudy,360,2013-07-02 12:35:00
8:55 AM,55.4,48.2,77,30.22,7.0,NNE,3.5,-,0.01,,Mostly Cloudy,30,2013-07-02 12:55:00
9:15 AM,57.2,48.2,72,30.23,8.0,NE,3.5,-,N/A,,Mostly Cloudy,40,2013-07-02 13:15:00
9:35 AM,57.2,48.2,72,30.23,9.0,NNE,4.6,-,N/A,,Scattered Clouds,20,2013-07-02 13:35:00
10:15 AM,60.8,50.0,68,30.23,9.0,Calm,Calm,-,N/A,,Scattered Clouds,0,2013-07-02 14:15:00
10:35 AM,62.6,50.0,63,30.22,10.0,East,5.8,-,N/A,,Partly Cloudy,80,2013-07-02 14:35:00
10:55 AM,62.6,48.2,59,30.22,10.0,ESE,4.6,-,N/A,,Clear,110,2013-07-02 14:55:00
11:15 AM,64.4,46.4,52,30.22,10.0,ESE,8.1,-,N/A,,Clear,120,2013-07-02 15:15:00
1:55 PM,-9999,-9999,N/A,30.19,-9999.0,SSE,6.9,-,N/A,,Unknown,160,2013-07-02 17:55:00
10:15 PM,-9999,-9999,N/A,30.13,-9999.0,SSW,3.5,-,N/A,,Unknown,200,2013-07-03 02:15:00
10:35 PM,59.0,51.8,77,30.13,9.0,Calm,Calm,-,N/A,,Overcast,0,2013-07-03 02:35:00
10:55 PM,59.0,51.8,77,30.13,8.0,Calm,Calm,-,N/A,,Overcast,0,2013-07-03 02:55:00
11:15 PM,59.0,51.8,77,30.13,10.0,Calm,Calm,-,N/A,,Overcast,0,2013-07-03 03:15:00
11:35 PM,59.0,51.8,77,30.13,10.0,Calm,Calm,-,N/A,,Overcast,0,2013-07-03 03:35:00
11:55 PM,59.0,51.8,77,30.13,10.0,SSW,4.6,-,N/A,,Overcast,210,2013-07-03 03:55:00